Weather History for Jackson, MS

Change the Weather History Date:

Sunday, August 25, 2013

  Actual Average Record
Temperature  
Mean Temperature 80 °F 81 °F  
Max Temperature 88 °F 91 °F 101 °F (2000)
Min Temperature 71 °F 70 °F 58 °F (1917)
Degree Days  
Heating Degree Days 0 0  
Month to date heating degree days 0 0  
Since 1 June heating degree days 0 0  
Since 1 July heating degree days 0 0  
Cooling Degree Days 15 16  
Month to date cooling degree days 438 415  
Year to date cooling degree days 1679 1710  
Since 1 June cooling degree days 1361 1352  
Growing Degree Days 30 (Base 50)    
Moisture  
Dew Point 71 °F    
Average Humidity 74    
Maximum Humidity 93    
Minimum Humidity 55    
Precipitation  
Precipitation T in 0.12 in 1.47 in (1967)
Month to date precipitation 3.05 3.58  
Year to date precipitation 43.75 36.62  
Sea Level Pressure  
Sea Level Pressure 30.17 in    
Wind  
Wind Speed 5 mph (East)    
Max Wind Speed 16 mph    
Max Gust Speed 20 mph    
Visibility 10 miles    
Events      
T = Trace of Precipitation, MM = Missing Value Source: NWS Daily Summary

Daily Weather History Graph

Daily Weather History Graph

Search for Another Location

Airport:

Trip Planner

Search our weather history database for the weather conditions in past years. The results will help you decide how hot, cold, wet, or windy it might be!

Date:

Astronomy

Aug. 25, 2013 Rise Set
Actual Time 6:31 AM CDT 7:32 PM CDT
Civil Twilight 6:05 AM CDT 7:58 PM CDT
Nautical Twilight 5:35 AM CDT 8:28 PM CDT
Astronomical Twilight 5:04 AM CDT 8:58 PM CDT
Moon 10:25 PM CDT (8/25) 11:12 AM CDT (8/25)
Length of Visible Light 13h 52m
Length of Day
13h 01m
Waning Gibbous, 75% of the Moon is Illuminated
Aug 25
Waning Gibbous
Aug 28
Last Quarter
Sep 5
New
Sep 12
First Quarter
Sep 19
Full

Hourly Weather History & Observations

Time (CDT) Temp. Heat Index Dew Point Humidity Pressure Visibility Wind Dir Wind Speed Gust Speed Precip Events Conditions
12:54 AM 73.9 °F - 72.0 °F 93% 30.13 in 10.0 mi Calm Calm - 0.01 in   Clear
1:54 AM 73.9 °F - 72.0 °F 93% 30.12 in 10.0 mi Calm Calm - N/A   Clear
2:54 AM 73.0 °F - 71.1 °F 93% 30.13 in 10.0 mi Calm Calm - 0.01 in   Clear
3:54 AM 73.0 °F - 71.1 °F 93% 30.13 in 10.0 mi Calm Calm - N/A   Clear
4:54 AM 72.0 °F - 70.0 °F 93% 30.13 in 10.0 mi Calm Calm - 0.01 in   Clear
5:54 AM 72.0 °F - 70.0 °F 93% 30.15 in 6.0 mi Calm Calm - N/A   Clear
6:23 AM 71.6 °F - 69.8 °F 94% 30.16 in 5.0 mi Calm Calm - N/A   Scattered Clouds
6:54 AM 72.0 °F - 70.0 °F 93% 30.17 in 6.0 mi Calm Calm - N/A   Partly Cloudy
7:54 AM 75.0 °F - 72.0 °F 90% 30.18 in 10.0 mi East 6.9 mph - N/A   Partly Cloudy
8:54 AM 78.1 °F - 73.0 °F 84% 30.19 in 10.0 mi East 9.2 mph - N/A   Partly Cloudy
9:54 AM 80.1 °F 83.8 °F 72.0 °F 76% 30.21 in 10.0 mi East 4.6 mph - N/A   Scattered Clouds
10:54 AM 82.9 °F 88.0 °F 72.0 °F 69% 30.21 in 10.0 mi East 11.5 mph - N/A   Scattered Clouds
11:03 AM 82.4 °F 87.2 °F 71.6 °F 70% 30.22 in 10.0 mi East 9.2 mph - N/A   Mostly Cloudy
11:26 AM 80.6 °F 84.6 °F 71.6 °F 74% 30.22 in 10.0 mi East 9.2 mph - N/A   Scattered Clouds
11:45 AM 82.4 °F 87.2 °F 71.6 °F 70% 30.22 in 10.0 mi ENE 10.4 mph - N/A   Mostly Cloudy
11:54 AM 82.0 °F 86.3 °F 71.1 °F 69% 30.21 in 10.0 mi East 12.7 mph 16.1 mph N/A   Mostly Cloudy
12:54 PM 82.9 °F 88.0 °F 72.0 °F 69% 30.20 in 10.0 mi East 8.1 mph - N/A   Overcast
1:54 PM 84.9 °F 90.1 °F 71.1 °F 63% 30.18 in 10.0 mi ESE 8.1 mph - N/A   Mostly Cloudy
2:54 PM 86.0 °F 90.7 °F 70.0 °F 59% 30.16 in 10.0 mi East 10.4 mph - N/A   Mostly Cloudy
3:54 PM 87.1 °F 92.8 °F 71.1 °F 59% 30.15 in 10.0 mi ENE 6.9 mph - N/A   Scattered Clouds
4:54 PM 87.1 °F 92.0 °F 70.0 °F 57% 30.14 in 10.0 mi East 8.1 mph - N/A   Scattered Clouds
5:54 PM 87.1 °F 92.0 °F 70.0 °F 57% 30.14 in 10.0 mi ESE 8.1 mph - N/A   Scattered Clouds
6:54 PM 84.9 °F 90.1 °F 71.1 °F 63% 30.14 in 10.0 mi ENE 3.5 mph - N/A   Partly Cloudy
7:54 PM 79.0 °F - 73.0 °F 82% 30.15 in 10.0 mi Calm Calm - N/A   Clear
8:54 PM 78.1 °F - 72.0 °F 81% 30.18 in 10.0 mi ENE 4.6 mph - N/A   Clear
9:54 PM 78.1 °F - 72.0 °F 81% 30.19 in 10.0 mi East 4.6 mph - N/A   Clear
10:54 PM 78.1 °F - 71.1 °F 79% 30.20 in 10.0 mi ENE 4.6 mph - N/A   Overcast
11:54 PM 77.0 °F - 69.1 °F 76% 30.21 in 10.0 mi SE 5.8 mph - 0.01 in   Overcast